Location: Mexico
(19.4000°N, 99.1500°W)
Time: 14:07:04
(UTC-06:00)

ISS - Pass Details

Date: 26 March 2017
Orbit: 399 x 409 km, 51.6° (Epoch: 24 March)

Event Time Altitude Azimuth Distance (km) Brightness Sun altitude
Rises 19:06:59 0° 218° (SW) 2,289 0.5 -5.0°
Reaches altitude 10° 19:09:02 10° 217° (SW) 1,435 -0.6 -5.5°
Maximum altitude 19:12:15 87° 132° (SE) 401 -3.9 -6.2°
Drops below altitude 10° 19:15:29 10° 39° (NE) 1,442 -1.4 -7.0°
Sets 19:17:34 0° 39° (NE) 2,303 -0.3 -7.5°
